Radiation Dose at Monitoring Post of Fukushima Daini Nuclear Power Station
Date,Time,MP-1(microSv/h),MP-2(microSv/h),MP-3(microSv/h),MP-4(microSv/h),MP-5(microSv/h),MP-6(microSv/h),MP-7(microSv/h),Wind Direction,Wind Velocity(m/s),Rain
2021/04/07,00:00,0.170,0.150,0.246,0.233,0.232,0.132,0.081,west-northwest,6.3,No
2021/04/07,00:10,0.170,0.150,0.246,0.233,0.233,0.131,0.081,northwest,7.4,No
2021/04/07,00:20,0.170,0.152,0.246,0.233,0.234,0.132,0.081,northwest,6.8,No
2021/04/07,00:30,0.170,0.151,0.246,0.234,0.234,0.131,0.081,northwest,6.7,No
2021/04/07,00:40,0.169,0.150,0.245,0.233,0.232,0.131,0.082,northwest,6.7,No
2021/04/07,00:50,0.170,0.151,0.246,0.231,0.233,0.132,0.081,northwest,5.9,No
2021/04/07,01:00,0.170,0.151,0.247,0.233,0.233,0.131,0.081,northwest,5.6,No
2021/04/07,01:10,0.170,0.150,0.246,0.232,0.232,0.132,0.081,northwest,5.8,No
2021/04/07,01:20,0.169,0.150,0.246,0.233,0.234,0.132,0.081,northwest,5.8,No
2021/04/07,01:30,0.170,0.151,0.246,0.233,0.233,0.132,0.081,northwest,5.9,No
2021/04/07,01:40,0.170,0.151,0.246,0.233,0.234,0.132,0.081,northwest,5.7,No
2021/04/07,01:50,0.169,0.150,0.246,0.233,0.233,0.132,0.081,northwest,5.2,No
2021/04/07,02:00,0.170,0.150,0.247,0.233,0.233,0.131,0.081,northwest,6.0,No
2021/04/07,02:10,0.170,0.151,0.246,0.234,0.233,0.132,0.082,northwest,5.1,No
2021/04/07,02:20,0.170,0.150,0.245,0.234,0.233,0.132,0.081,north-northwest,4.9,No
2021/04/07,02:30,0.170,0.150,0.246,0.234,0.233,0.132,0.081,northwest,4.5,No
2021/04/07,02:40,0.171,0.152,0.246,0.233,0.233,0.131,0.081,northwest,5.3,No
2021/04/07,02:50,0.170,0.151,0.248,0.233,0.232,0.132,0.081,northwest,4.7,No
2021/04/07,03:00,0.170,0.150,0.247,0.233,0.233,0.132,0.081,northwest,4.7,No
2021/04/07,03:10,0.169,0.150,0.247,0.234,0.233,0.131,0.081,northwest,5.4,No
2021/04/07,03:20,0.169,0.150,0.245,0.234,0.232,0.132,0.082,northwest,5.1,No
2021/04/07,03:30,0.169,0.150,0.247,0.232,0.233,0.133,0.082,northwest,6.0,No
2021/04/07,03:40,0.171,0.151,0.248,0.233,0.233,0.132,0.081,north-northwest,6.9,No
2021/04/07,03:50,0.170,0.151,0.246,0.233,0.233,0.132,0.082,northwest,7.3,No
2021/04/07,04:00,0.169,0.151,0.247,0.232,0.233,0.133,0.082,northwest,7.6,No
2021/04/07,04:10,0.171,0.150,0.247,0.233,0.233,0.133,0.082,northwest,7.4,No
2021/04/07,04:20,0.170,0.151,0.246,0.233,0.234,0.132,0.082,north-northwest,7.0,No
2021/04/07,04:30,0.170,0.150,0.247,0.234,0.234,0.133,0.082,north-northwest,7.0,No
2021/04/07,04:40,0.171,0.152,0.247,0.232,0.234,0.132,0.082,north-northwest,6.9,No
2021/04/07,04:50,0.170,0.151,0.246,0.234,0.234,0.132,0.081,north-northwest,7.5,No
2021/04/07,05:00,0.170,0.151,0.247,0.233,0.234,0.133,0.082,north-northwest,7.4,No
2021/04/07,05:10,0.170,0.151,0.246,0.232,0.234,0.132,0.081,north-northwest,7.5,No
2021/04/07,05:20,0.170,0.151,0.247,0.234,0.235,0.132,0.081,north-northwest,7.5,No
2021/04/07,05:30,0.170,0.151,0.248,0.234,0.233,0.133,0.082,northwest,7.0,No
2021/04/07,05:40,0.170,0.151,0.247,0.233,0.234,0.132,0.083,northwest,7.4,No
2021/04/07,05:50,0.170,0.151,0.247,0.233,0.234,0.132,0.082,northwest,7.4,No
2021/04/07,06:00,0.170,0.150,0.247,0.233,0.235,0.132,0.081,northwest,6.9,No
2021/04/07,06:10,0.170,0.151,0.246,0.234,0.233,0.132,0.082,northwest,7.7,No
2021/04/07,06:20,0.170,0.151,0.247,0.233,0.233,0.132,0.082,northwest,7.3,No
2021/04/07,06:30,0.170,0.151,0.246,0.233,0.235,0.132,0.081,north-northwest,6.7,No
2021/04/07,06:40,0.170,0.150,0.247,0.234,0.232,0.132,0.082,north-northwest,7.1,No
2021/04/07,06:50,0.169,0.151,0.247,0.233,0.234,0.132,0.081,north-northwest,6.6,No
2021/04/07,07:00,0.169,0.151,0.246,0.232,0.234,0.132,0.081,north-northwest,6.5,No
2021/04/07,07:10,0.169,0.150,0.245,0.232,0.233,0.133,0.081,north-northwest,6.8,No
2021/04/07,07:20,0.170,0.150,0.245,0.234,0.233,0.131,0.081,north-northwest,5.9,No
2021/04/07,07:30,0.170,0.151,0.246,0.232,0.232,0.132,0.082,north-northwest,5.6,No
2021/04/07,07:40,0.170,0.149,0.246,0.232,0.233,0.132,0.080,north-northwest,5.2,No
2021/04/07,07:50,0.170,0.150,0.244,0.235,0.234,0.131,0.082,north,6.3,No
2021/04/07,08:00,0.170,0.150,0.246,0.231,0.234,0.132,0.081,north,5.6,No
2021/04/07,08:10,0.170,0.150,0.245,0.233,0.232,0.132,0.081,north-northwest,4.3,No
2021/04/07,08:20,0.169,0.149,0.244,0.231,0.233,0.132,0.081,north,4.6,No
2021/04/07,08:30,0.169,0.150,0.246,0.232,0.233,0.132,0.082,north,5.1,No
2021/04/07,08:40,0.169,0.150,0.247,0.232,0.232,0.131,0.081,north,6.6,No
2021/04/07,08:50,0.169,0.150,0.245,0.231,0.236,0.131,0.081,north,6.4,No
2021/04/07,09:00,0.170,0.151,0.246,0.233,0.232,0.131,0.081,north,6.4,No
2021/04/07,09:10,0.169,0.151,0.244,0.231,0.235,0.132,0.081,north,6.1,No
2021/04/07,09:20,0.168,0.150,0.246,0.234,0.234,0.133,0.081,north,5.8,No
2021/04/07,09:30,0.170,0.149,0.246,0.231,0.235,0.131,0.081,north-northeast,5.3,No
2021/04/07,09:40,0.169,0.150,0.245,0.232,0.233,0.132,0.081,northeast,3.9,No
2021/04/07,09:50,0.170,0.149,0.246,0.231,0.233,0.131,0.080,north-northeast,5.5,No
2021/04/07,10:00,0.168,0.149,0.244,0.232,0.234,0.132,0.082,north-northeast,6.4,No
2021/04/07,10:10,0.169,0.150,0.247,0.232,0.234,0.132,0.081,north-northeast,6.7,No
2021/04/07,10:20,0.169,0.150,0.246,0.232,0.233,0.131,0.082,northeast,5.1,No
2021/04/07,10:30,0.169,0.150,0.247,0.231,0.234,0.131,0.081,north-northeast,5.9,No
2021/04/07,10:40,0.169,0.150,0.245,0.233,0.234,0.131,0.081,northeast,4.8,No
2021/04/07,10:50,0.169,0.149,0.247,0.232,0.234,0.132,0.081,northeast,5.1,No
2021/04/07,11:00,0.170,0.150,0.247,0.232,0.234,0.131,0.081,northeast,3.2,No
2021/04/07,11:10,0.170,0.149,0.245,0.233,0.234,0.132,0.081,northeast,3.4,No
2021/04/07,11:20,0.169,0.150,0.246,0.232,0.233,0.132,0.082,northeast,4.5,No
2021/04/07,11:30,0.171,0.151,0.246,0.232,0.235,0.133,0.081,north-northeast,3.1,No
2021/04/07,11:40,0.168,0.150,0.248,0.233,0.234,0.131,0.082,north-northeast,4.2,No
2021/04/07,11:50,0.170,0.151,0.246,0.232,0.235,0.132,0.082,northeast,3.4,No
2021/04/07,12:00,0.169,0.150,0.248,0.234,0.233,0.132,0.081,northeast,4.1,No
2021/04/07,12:10,0.170,0.150,0.247,0.233,0.235,0.133,0.081,northeast,3.1,No
2021/04/07,12:20,0.169,0.150,0.249,0.233,0.233,0.132,0.081,northeast,2.7,No
2021/04/07,12:30,0.171,0.151,0.248,0.232,0.232,0.132,0.082,northeast,3.7,No
2021/04/07,12:40,0.169,0.150,0.246,0.233,0.235,0.132,0.081,northeast,3.2,No
2021/04/07,12:50,0.170,0.151,0.246,0.234,0.233,0.132,0.081,north-northeast,2.9,No
2021/04/07,13:00,0.169,0.150,0.248,0.233,0.236,0.132,0.082,northeast,2.7,No
2021/04/07,13:10,0.169,0.151,0.246,0.233,0.234,0.132,0.082,northeast,3.5,No
2021/04/07,13:20,0.169,0.151,0.249,0.234,0.234,0.132,0.081,northeast,2.4,No
2021/04/07,13:30,0.171,0.151,0.246,0.235,0.235,0.133,0.081,northeast,3.3,No
2021/04/07,13:40,0.169,0.151,0.247,0.233,0.236,0.132,0.082,northeast,2.1,No
2021/04/07,13:50,0.170,0.150,0.248,0.234,0.236,0.133,0.082,north-northeast,2.3,No
2021/04/07,14:00,0.170,0.152,0.248,0.233,0.234,0.132,0.081,northeast,1.7,No
2021/04/07,14:10,0.171,0.151,0.248,0.234,0.235,0.133,0.081,east-northeast,2.2,No
2021/04/07,14:20,0.169,0.151,0.248,0.233,0.233,0.132,0.082,northeast,1.3,No
2021/04/07,14:30,0.170,0.150,0.246,0.233,0.235,0.131,0.081,north-northeast,2.3,No
2021/04/07,14:40,0.168,0.150,0.248,0.232,0.234,0.132,0.082,east-northeast,1.6,No
2021/04/07,14:50,0.170,0.150,0.248,0.235,0.233,0.132,0.081,east,2.4,No
2021/04/07,15:00,0.168,0.151,0.246,0.233,0.236,0.132,0.082,east-northeast,2.1,No
2021/04/07,15:10,0.170,0.151,0.248,0.234,0.233,0.132,0.082,northeast,1.5,No
2021/04/07,15:20,0.169,0.152,0.248,0.234,0.234,0.132,0.082,northeast,2.1,No
2021/04/07,15:30,0.169,0.151,0.249,0.234,0.235,0.133,0.082,northeast,1.5,No
2021/04/07,15:40,0.169,0.151,0.249,0.234,0.232,0.132,0.082,northeast,0.7,No
2021/04/07,15:50,0.171,0.151,0.246,0.235,0.236,0.133,0.082,east-northeast,1.7,No
2021/04/07,16:00,0.169,0.151,0.249,0.235,0.233,0.131,0.082,east,1.6,No
2021/04/07,16:10,0.170,0.152,0.248,0.234,0.233,0.132,0.082,east,1.1,No
2021/04/07,16:20,0.168,0.151,0.248,0.235,0.236,0.133,0.081,east,1.3,No
2021/04/07,16:30,0.171,0.151,0.249,0.235,0.233,0.133,0.082,-,CALM,No
2021/04/07,16:40,0.170,0.151,0.247,0.237,0.235,0.132,0.082,east-northeast,0.8,No
2021/04/07,16:50,0.170,0.151,0.247,0.235,0.234,0.132,0.082,-,CALM,No
2021/04/07,17:00,0.170,0.153,0.248,0.235,0.234,0.133,0.082,-,CALM,No
2021/04/07,17:10,0.171,0.150,0.247,0.234,0.235,0.133,0.082,-,CALM,Yes
2021/04/07,17:20,0.170,0.152,0.249,0.233,0.236,0.132,0.082,southwest,0.9,No
2021/04/07,17:30,0.169,0.151,0.249,0.235,0.235,0.133,0.082,-,CALM,No
2021/04/07,17:40,0.170,0.151,0.248,0.233,0.236,0.133,0.081,northeast,0.9,No
2021/04/07,17:50,0.170,0.150,0.249,0.235,0.235,0.131,0.081,-,CALM,No
2021/04/07,18:00,0.170,0.152,0.248,0.235,0.235,0.133,0.082,-,CALM,No
2021/04/07,18:10,0.171,0.151,0.249,0.234,0.235,0.133,0.082,-,CALM,No
2021/04/07,18:20,0.170,0.151,0.249,0.235,0.235,0.132,0.082,-,CALM,No
2021/04/07,18:30,0.171,0.152,0.248,0.235,0.236,0.133,0.083,-,CALM,No
2021/04/07,18:40,0.170,0.151,0.249,0.234,0.235,0.133,0.081,west,0.9,No
2021/04/07,18:50,0.170,0.150,0.248,0.235,0.236,0.134,0.082,west-northwest,1.0,No
2021/04/07,19:00,0.171,0.152,0.249,0.235,0.235,0.133,0.082,west-northwest,0.8,No
2021/04/07,19:10,0.169,0.153,0.249,0.235,0.235,0.134,0.082,west,1.3,No
2021/04/07,19:20,0.170,0.151,0.249,0.235,0.235,0.133,0.082,west,0.6,No
2021/04/07,19:30,0.172,0.152,0.248,0.235,0.233,0.134,0.082,west-southwest,1.3,No
2021/04/07,19:40,0.169,0.152,0.249,0.235,0.234,0.133,0.082,west-northwest,1.2,No
2021/04/07,19:50,0.170,0.151,0.248,0.236,0.234,0.133,0.082,west-northwest,0.8,No
2021/04/07,20:00,0.171,0.152,0.249,0.234,0.233,0.133,0.083,west,2.6,No
2021/04/07,20:10,0.170,0.153,0.247,0.235,0.233,0.133,0.082,west,4.2,No
2021/04/07,20:20,0.170,0.152,0.249,0.235,0.235,0.133,0.082,west,5.2,No
2021/04/07,20:30,0.171,0.151,0.249,0.235,0.234,0.133,0.082,west-northwest,6.0,No
2021/04/07,20:40,0.170,0.152,0.247,0.234,0.234,0.133,0.082,west-northwest,7.4,No
2021/04/07,20:50,0.170,0.151,0.248,0.236,0.235,0.133,0.081,west-northwest,7.2,No
2021/04/07,21:00,0.170,0.151,0.249,0.234,0.234,0.133,0.081,west-northwest,6.2,No
2021/04/07,21:10,0.172,0.152,0.247,0.235,0.233,0.132,0.082,northwest,5.3,No
2021/04/07,21:20,0.169,0.152,0.249,0.235,0.234,0.132,0.082,west-northwest,4.2,No
2021/04/07,21:30,0.170,0.152,0.249,0.234,0.234,0.133,0.082,north-northwest,4.6,No
2021/04/07,21:40,0.171,0.152,0.249,0.235,0.234,0.134,0.082,north-northwest,4.8,No
2021/04/07,21:50,0.170,0.152,0.248,0.234,0.234,0.133,0.082,north-northwest,3.7,No
2021/04/07,22:00,0.171,0.152,0.250,0.235,0.234,0.133,0.083,north-northwest,3.1,No
2021/04/07,22:10,0.171,0.152,0.249,0.234,0.236,0.132,0.082,north-northwest,5.4,No
2021/04/07,22:20,0.169,0.151,0.249,0.235,0.235,0.133,0.082,north-northwest,5.3,No
2021/04/07,22:30,0.170,0.150,0.248,0.234,0.235,0.134,0.083,north-northwest,4.6,No
2021/04/07,22:40,0.172,0.152,0.250,0.235,0.236,0.133,0.081,north-northwest,4.9,No
2021/04/07,22:50,0.169,0.152,0.248,0.234,0.234,0.132,0.082,north-northwest,3.7,No
2021/04/07,23:00,0.169,0.152,0.249,0.234,0.235,0.133,0.082,north-northwest,3.3,No
2021/04/07,23:10,0.170,0.152,0.249,0.235,0.235,0.133,0.082,north-northwest,2.3,No
2021/04/07,23:20,0.170,0.151,0.248,0.235,0.234,0.133,0.081,west-northwest,1.4,No
2021/04/07,23:30,0.171,0.152,0.249,0.235,0.233,0.132,0.082,west-northwest,1.7,No
2021/04/07,23:40,0.170,0.151,0.247,0.234,0.235,0.133,0.081,north-northwest,2.0,No
2021/04/07,23:50,0.170,0.152,0.248,0.235,0.234,0.133,0.082,north-northwest,2.9,No
